CAPE
1580 758 1106 1711 1904 1329 1066 836 455 300 109 0 0 0 44 21 32 15 206 211 180 44 119 117 166 275 254 259 254 217 168 45 2 2 2 0 1 2 3 1 0 1 1
624 1122 1998 1984 1734 1058 685 648 504 308 170 0 0 0 79 40 102 30 46 124 49 119 172 214 244 298 277 314 289 197 180 11 0 0 2 0 1 1 0 0 0 0 1
1773 1877 2214 1969 1528 1410 938 875 622 376 299 280 164 0 0 0 0 28 150 102 76 46 61 42 58 234 311 299 258 157 42 1 0 0 1 1 0 0 2 1 0 0 0
1780 2123 1887 1763 1496 1404 1047 868 824 557 384 21 6 0 0 0 12 47 54 49 36 42 39 31 19 53 157 264 206 67 0 0 0 1 1 1 0 0 0 1 2 0 0
2034 2070 1892 1521 1537 1396 1179 1024 559 333 286 8 7 0 0 0 9 20 127 82 84 2 0 0 0 0 18 190 128 20 0 0 0 1 0 1 1 1 1 1 2 0 0
2432 2027 2020 1483 1448 1263 1047 778 566 336 254 77 36 3 0 0 0 0 1 0 0 13 0 0 0 0 0 22 134 43 0 0 0 0 0 0 1 2 0 0 0 1 2
2534 2051 1903 1563 1407 1297 1014 714 575 480 285 188 115 57 14 0 0 0 8 3 0 0 0 0 0 0 0 0 0 0 28 0 0 0 0 0 0 0 1 0 0 0 0
2666 2380 2192 1734 1439 1356 1123 869 679 522 447 183 153 111 65 0 0 0 0 1 26 0 0 0 0 3 2 0 0 0 0 0 1 1 0 0 0 0 0 0 0 0 0
2481 1335 569 723 1341 1444 1342 1011 872 643 618 408 316 209 171 27 0 0 0 0 0 0 6 4 0 6 0 0 23 0 0 0 0 0 0 0 0 0 0 0 0 0 0
834 162 0 0 1 0 3 1220 1015 868 719 652 398 330 279 118 0 0 0 0 0 0 0 15 6 0 0 0 29 11 0 0 0 0 0 0 0 0 0 0 0 0 0
0 0 0 0 0 0 0 86 1129 969 888 797 621 399 414 359 77 0 0 0 0 34 24 0 0 0 0 0 0 4 5 0 0 0 0 0 0 0 0 0 0 0 0
1 0 0 0 0 0 0 0 1098 1068 1006 948 738 586 573 573 395 45 0 0 0 1 100 120 53 0 0 0 0 0 0 0 0 0 0 0 0 0 0 0 0 0 0
218 106 0 0 1 2 0 724 1304 1235 1070 964 1038 841 907 831 468 119 30 0 0 0 4 73 3 0 0 0 0 0 0 0 0 0 0 0 0 0 0 0 0 0 0
480 411 166 2 0 289 937 1543 1478 1316 1210 1118 927 534 316 359 285 121 43 0 0 0 0 0 0 0 0 0 0 0 0 0 0 0 0 0 0 0 1 0 1 0 0
213 538 717 371 320 611 389 491 838 990 947 671 490 300 167 205 14 48 83 42 6 24 23 0 0 0 0 0 0 0 0 0 0 0 0 0 0 0 0 3 17 8 0
0 2 37 121 383 649 372 299 24 13 70 347 245 151 34 33 0 0 0 0 0 2 6 64 88 43 18 4 1 0 0 0 0 0 0 0 0 0 0 0 0 4 8
0 0 0 0 0 147 386 209 168 2 0 0 16 1 1 0 0 0 0 0 0 0 0 4 18 18 10 16 2 1 1 6 0 0 0 0 0 0 0 0 0 0 0
0 0 0 0 0 0 1 246 38 0 0 0 0 0 0 0 0 0 0 0 0 0 0 16 1 0 3 1 1 0 1 1 0 0 0 1 0 0 0 0 1 1 0
0 0 0 0 0 0 0 0 0 1 2 0 2 0 0 0 0 0 0 0 15 37 29 55 17 0 0 0 0 0 0 0 0 0 0 0 0 0 0 0 0 0 1
1 0 0 0 0 0 0 0 0 0 0 9 1 0 0 0 0 0 0 7 24 44 35 27 0 0 0 0 0 0 0 0 0 0 0 0 0 0 0 0 0 0 0
8 2 5 0 0 0 0 0 0 0 0 4 0 0 3 0 21 9 33 34 19 37 51 25 0 0 0 0 0 0 0 0 0 0 0 0 0 0 0 0 0 0 0
0 0 0 0 0 9 1 0 0 0 0 0 21 4 0 1 0 11 0 0 0 0 0 0 0 0 0 0 0 0 0 0 0 0 0 1 3 0 0 0 0 0 0
0 0 0 0 0 0 10 39 31 5 17 23 28 4 0 0 0 0 0 0 0 0 0 0 0 0 0 0 0 0 0 0 0 0 0 0 0 0 0 0 1 0 0
0 0 0 0 18 38 45 32 52 24 14 5 3 0 0 0 0 0 0 0 0 0 0 0 0 0 0 0 0 0 0 0 0 0 0 0 0 0 0 0 1 1 1
17 19 34 27 30 43 18 5 4 0 0 0 0 0 0 0 0 0 0 0 0 0 0 0 0 0 0 0 0 0 0 0 0 0 0 0 0 0 0 0 0 0 0
1 2 0 3 9 6 0 0 0 0 0 0 0 0 0 0 0 0 0 0 0 0 0 0 0 0 0 0 0 0 0 0 0 0 0 0 0 0 0 0 0 0 0
CIN
-74 -138 -125 -73 -25 -44 -26 -31 -65 -72 -101 -0 -0 -0 -21 -35 -26 -50 -7 -10 -15 -33 -24 -29 -18 -16 -31 -40 -36 -21 -11 -57 -127 -0 -0 -0 -0 -0 -0 -0 -0 -0 -0
-254 -132 -14 -19 -59 -86 -113 -84 -80 -83 -84 -0 -0 -0 -21 -57 -33 -43 -37 -34 -45 -24 -13 -6 -8 -9 -22 -33 -39 -46 -44 -149 -0 -0 -0 -0 -0 -0 -0 -0 -0 -0 -0
-120 -82 -28 -6 -27 -44 -101 -56 -74 -84 -33 -21 -19 -0 -0 -0 -0 -42 -30 -35 -34 -36 -31 -60 -47 -13 -6 -24 -46 -76 -122 -99 -0 -0 -0 -0 -0 -0 -0 -0 -0 -0 -0
-111 -54 -63 -34 -14 -42 -56 -52 -44 -49 -45 -51 -89 -0 -0 -0 -69 -52 -30 -61 -93 -32 -47 -95 -36 -68 -33 -13 -21 -71 -0 -0 -0 -0 -0 -0 -0 -0 -0 -0 -0 -0 -0
-103 -76 -81 -94 -62 -26 -22 -23 -67 -90 -72 -131 -83 -0 -0 -0 -64 -115 -41 -26 -34 -29 -0 -0 -0 -0 -109 -49 -68 -141 -0 -0 -0 -0 -0 -0 -0 -0 -0 -0 -0 -0 -0
-70 -92 -63 -93 -73 -71 -67 -74 -68 -92 -83 -98 -136 -75 -0 -0 -0 -0 -23 -0 -0 -68 -0 -0 -0 -0 -0 -79 -24 -80 -0 -0 -0 -0 -0 -0 -0 -0 -0 -0 -0 -0 -0
-45 -84 -98 -112 -113 -109 -122 -105 -69 -69 -100 -100 -126 -122 -44 -0 -0 -0 -113 -33 -0 -0 -0 -0 -0 -0 -0 -0 -0 -0 -43 -3 -0 -0 -0 -0 -0 -0 -0 -0 -0 -0 -0
-35 -42 -47 -65 -66 -65 -84 -96 -102 -65 -58 -98 -111 -113 -131 -0 -0 -0 -0 -5 -53 -0 -1 -0 -27 -63 -55 -0 -0 -0 -0 -0 -8 -7 -0 -0 -0 -0 -0 -0 -0 -0 -0
-24 -100 -238 -90 -16 -12 -18 -75 -78 -68 -42 -60 -63 -97 -86 -115 -0 -0 -0 -0 -0 -0 -32 -57 -41 -87 -0 -0 -65 -0 -0 -0 -0 -0 -2 -0 -0 -0 -0 -0 -0 -0 -0
-205 -402 -222 -0 -0 -0 -192 -6 -68 -68 -67 -24 -47 -57 -64 -90 -0 -0 -0 -0 -0 -0 -0 -53 -100 -0 -0 -0 -83 -102 -0 -0 -0 -0 -0 -0 -7 -0 -0 -0 -0 -0 -0
-0 -0 -0 -0 -0 -0 -0 -81 -8 -45 -51 -35 -32 -52 -51 -51 -120 -0 -0 -0 -0 -59 -57 -0 -0 -0 -0 -0 -0 -58 -61 -0 -0 -0 -0 -0 -0 -0 -0 -0 -0 -0 -0
-20 -0 -0 -0 -0 -0 -0 -0 -6 -13 -32 -22 -34 -43 -38 -31 -39 -142 -16 -0 -0 -26 -36 -48 -83 -0 -0 -0 -0 -0 -0 -0 -0 -0 -0 -0 -0 -0 -0 -0 -0 -0 -0
-277 -297 -0 -0 -13 -0 -0 -8 -8 -17 -16 -19 -8 -15 -10 -17 -37 -85 -145 -0 -0 -10 -6 -67 -12 -4 -0 -0 -0 -0 -0 -0 -0 -0 -0 -0 -0 -0 -0 -0 -0 -0 -0
-117 -132 -242 -89 -0 -121 -7 -13 -12 -16 -15 -11 -14 -30 -23 -23 -17 -41 -95 -3 -13 -0 -0 -0 -0 -0 -0 -0 -0 -0 -0 -0 -0 -0 -0 -0 -0 -0 -37 -8 -61 -0 -0
-115 -21 -17 -110 -53 -26 -84 -95 -50 -34 -34 -23 -23 -25 -25 -26 -100 -105 -87 -104 -130 -169 -105 -0 -0 -0 -0 -0 -0 -0 -0 -0 -0 -0 -0 -0 -0 -0 -0 -63 -39 -45 -0
-0 -26 -302 -177 -49 -15 -66 -88 -212 -59 -193 -90 -63 -89 -91 -90 -0 -0 -0 -0 -0 -106 -82 -27 -7 -50 -100 -80 -22 -0 -0 -0 -0 -0 -0 -0 -0 -0 -0 -0 -4 -11 -25
-0 -0 -0 -0 -0 -84 -48 -149 -105 -0 -0 -0 -207 -90 -5 -0 -0 -0 -0 -0 -0 -0 -3 -94 -41 -55 -125 -146 -9 -16 -5 -29 -0 -3 -0 -0 -0 -0 -0 -0 -0 -0 -0
-0 -0 -0 -0 -0 -0 -0 -22 -86 -0 -0 -0 -0 -0 -0 -0 -0 -0 -0 -0 -0 -0 -0 -81 -20 -0 -178 -2 -2 -0 -0 -0 -0 -0 -0 -0 -0 -0 -0 -0 -0 -0 -0
-0 -0 -0 -0 -0 -0 -0 -0 -43 -19 -19 -0 -2 -0 -0 -0 -0 -0 -0 -0 -92 -76 -87 -14 -40 -0 -0 -0 -0 -0 -0 -0 -0 -0 -0 -0 -0 -0 -0 -0 -0 -0 -0
-24 -0 -0 -0 -0 -0 -0 -0 -0 -0 -0 -1 -10 -0 -0 -0 -0 -0 -0 -115 -83 -41 -24 -55 -0 -0 -0 -0 -0 -0 -0 -0 -0 -0 -0 -0 -0 -0 -0 -0 -0 -0 -0
-38 -36 -34 -0 -0 -0 -0 -0 -0 -0 -0 -8 -0 -0 -63 -1 -28 -53 -42 -39 -44 -44 -32 -47 -3 -4 -0 -0 -0 -0 -0 -0 -0 -0 -0 -0 -0 -0 -0 -0 -0 -0 -1
-0 -0 -0 -0 -0 -40 -9 -0 -0 -39 -0 -0 -10 -20 -3 -14 -11 -43 -0 -0 -0 -0 -0 -0 -0 -0 -0 -0 -0 -0 -0 -0 -0 -0 -0 -14 -14 -0 -0 -0 -0 -0 -0
-0 -0 -0 -0 -0 -38 -30 -38 -62 -53 -33 -25 -38 -37 -0 -0 -0 -0 -0 -0 -0 -0 -0 -0 -0 -0 -0 -0 -0 -0 -0 -0 -0 -0 -0 -0 -0 -0 -4 -0 -1 -0 -0
-0 -0 -0 -0 -41 -16 -20 -46 -60 -35 -32 -72 -118 -0 -0 -0 -0 -0 -0 -0 -0 -0 -0 -0 -0 -0 -0 -0 -0 -0 -0 -0 -0 -0 -0 -0 -0 -0 -0 -7 -8 -6 -5
-10 -9 -9 -9 -11 -17 -25 -53 -58 -0 -0 -0 -0 -0 -0 -0 -0 -0 -0 -0 -0 -0 -0 -0 -0 -0 -0 -0 -0 -0 -0 -0 -0 -0 -0 -0 -0 -0 -0 -0 -0 -0 -0
-10 -20 -17 -54 -54 -36 -0 -0 -0 -0 -0 -0 -0 -0 -0 -0 -0 -0 -0 -0 -9 -0 -0 -0 -0 -0 -0 -0 -0 -0 -0 -0 -0 -0 -0 -0 -0 -0 -0 -0 -0 -0 -0
Wind_Speed
15 17 23 17 13 11 12 12 13 14 15 15 15 14 13 11 8 9 9 11 12 13 14 15 17 17 18 18 15 13 12 10 10 12 10 11 11 8 10 11 13 13 13
16 15 18 14 13 12 12 13 13 14 14 14 15 16 14 12 11 9 11 10 11 12 13 14 15 18 18 17 14 8 6 6 7 5 7 10 10 8 8 10 11 12 12
13 12 12 12 11 11 12 12 12 13 14 14 13 12 11 11 10 10 9 9 10 11 13 14 15 16 16 15 11 9 7 6 6 5 5 13 8 6 7 9 10 11 11
11 12 11 9 8 9 9 10 11 11 12 13 12 11 12 11 11 10 10 10 9 11 12 13 13 12 13 12 11 10 9 8 8 7 6 5 7 7 6 7 9 9 9
8 8 8 9 10 10 9 8 7 8 10 11 13 13 13 12 13 13 11 10 10 10 11 12 13 12 11 10 9 8 9 9 8 7 6 7 6 5 4 7 8 8 8
4 4 5 6 8 8 7 7 5 5 9 10 11 12 12 12 12 13 12 11 10 9 10 11 12 13 11 11 9 8 8 8 8 8 7 4 6 8 6 6 7 8 11
2 1 1 3 4 4 5 5 5 4 5 8 9 10 10 11 11 11 11 11 12 11 10 8 8 9 11 11 10 10 10 8 7 8 9 8 7 5 5 5 5 6 10
7 8 8 6 4 1 2 3 7 5 1 2 4 6 8 8 8 8 9 9 10 10 10 10 10 9 8 9 10 11 11 10 10 9 10 9 7 4 1 2 4 8 11
14 20 23 25 20 12 5 3 3 4 4 2 0 1 2 6 7 6 7 7 8 8 9 9 9 9 9 8 9 9 11 12 12 11 12 9 7 6 4 4 2 1 4
21 23 30 35 34 28 40 17 8 6 5 8 6 5 1 0 5 3 4 4 5 6 6 6 7 7 7 7 8 7 10 10 10 11 13 12 8 6 5 4 3 1 4
22 23 27 33 38 61 48 51 15 10 8 7 9 8 9 5 4 4 1 1 2 3 4 4 4 6 6 7 6 10 8 10 8 10 11 11 9 6 4 3 3 2 4
24 26 33 45 62 52 35 52 21 13 10 8 8 7 6 7 7 7 4 2 3 8 7 3 2 4 3 5 6 8 10 11 10 9 9 9 8 7 5 3 3 2 5
28 27 34 45 48 25 33 22 15 13 11 11 9 8 5 4 4 4 4 5 13 15 15 12 9 1 2 7 9 8 10 12 11 12 11 8 5 4 7 6 4 4 5
30 27 20 21 18 19 28 8 11 11 12 11 11 9 11 13 11 10 9 7 14 16 20 17 13 5 5 8 11 11 12 13 14 14 16 16 15 11 8 7 7 6 9
31 30 24 10 6 8 30 23 14 11 11 12 18 23 14 15 15 14 12 11 11 6 12 14 14 14 12 12 13 14 15 14 14 15 18 19 20 19 19 9 9 9 11
29 29 29 29 29 26 16 19 23 28 20 15 11 11 15 12 9 10 9 9 10 9 11 9 14 13 11 14 15 18 18 17 18 18 19 20 21 22 20 19 16 17 16
29 28 28 28 30 30 23 15 13 18 20 20 12 8 7 8 7 7 8 9 10 10 11 9 18 18 18 18 20 20 20 19 17 18 20 21 21 20 20 21 22 22 24
28 28 26 24 24 24 24 17 15 16 17 17 16 10 8 8 9 10 10 9 11 12 10 10 13 13 13 15 16 17 17 17 18 20 19 21 22 21 21 24 25 25 25
25 27 26 26 24 23 22 20 17 16 12 13 13 10 10 11 10 9 11 13 10 9 7 8 10 12 13 15 14 15 15 16 16 17 18 18 19 20 22 24 25 26 26
24 24 25 25 25 24 21 20 17 14 13 12 9 10 11 11 13 12 12 10 10 9 7 8 11 12 13 13 14 14 15 16 16 17 19 20 20 21 22 23 25 26 28
24 24 23 23 24 21 20 20 17 14 13 14 6 9 10 12 12 10 10 11 10 10 9 10 11 12 13 14 14 15 15 17 18 18 19 20 21 22 23 24 26 27 28
25 23 21 20 21 20 17 13 12 14 12 12 8 12 13 13 13 14 13 11 12 13 13 14 14 14 15 14 15 15 17 20 22 23 24 23 23 25 25 26 27 28 29
20 21 21 20 22 21 17 15 12 10 9 10 10 10 12 12 12 13 12 12 13 14 15 14 14 15 16 17 18 19 20 22 23 24 25 25 25 23 24 25 24 24 28
22 19 18 16 16 18 12 13 12 9 10 11 10 10 10 11 12 12 13 14 14 15 16 15 15 16 16 17 19 20 21 22 23 24 25 25 26 28 27 24 24 26 26
23 20 17 16 15 11 13 13 12 11 11 10 9 9 11 13 13 14 13 13 13 14 15 15 15 16 17 18 20 21 22 24 25 26 26 26 26 27 26 27 28 28 28
22 21 20 19 18 15 14 13 13 11 10 10 11 11 12 13 13 14 13 13 14 14 14 14 15 16 18 20 22 23 24 26 26 27 26 26 27 28 28 28 28 29 29
Wind_Direction
90 95 145 126 98 73 73 60 64 67 88 98 96 100 100 96 40 353 335 336 333 332 333 327 318 320 317 315 315 312 306 306 315 322 323 288 308 5 15 17 18 17 19
97 106 155 102 96 90 70 71 70 80 91 99 100 102 101 91 91 42 343 352 348 352 354 345 341 324 325 320 324 338 343 335 334 353 320 297 313 9 27 31 29 25 23
111 107 99 92 93 89 77 76 75 79 94 106 96 71 61 62 57 29 40 16 4 359 352 346 338 338 336 343 9 16 16 13 17 24 345 279 344 11 19 20 28 32 27
117 116 103 92 80 91 78 83 77 82 85 88 78 74 82 75 75 60 52 51 22 1 356 355 358 11 4 8 24 26 28 25 33 52 36 22 345 348 6 21 15 25 39
131 125 117 113 114 115 109 78 51 69 79 91 93 88 93 85 90 86 75 57 48 43 32 16 10 7 1 11 25 35 33 23 24 37 35 333 336 356 348 350 354 9 12
131 125 118 110 123 120 110 100 85 64 101 102 96 93 96 96 106 97 81 71 45 52 49 31 20 19 17 6 16 36 33 30 13 357 353 358 327 319 335 338 339 341 334
345 291 177 162 147 135 126 113 121 116 103 109 101 104 102 90 96 88 85 71 85 77 55 38 38 29 24 21 19 15 11 17 28 4 357 345 334 326 328 328 329 331 331
306 297 296 270 257 260 160 140 148 142 96 91 101 101 98 105 97 87 86 76 39 81 70 54 62 60 56 30 36 24 19 8 4 358 356 359 7 18 122 343 335 328 326
312 311 311 298 287 298 287 259 221 179 178 185 247 114 54 114 116 85 80 79 46 54 60 60 57 78 63 49 27 34 22 14 7 0 354 7 22 40 58 15 10 31 341
318 316 309 293 272 293 289 275 255 232 214 183 179 173 195 37 138 102 48 54 54 71 76 57 61 68 62 48 25 43 16 14 24 11 2 2 35 55 85 75 39 22 345
325 330 326 320 308 274 295 250 231 233 229 210 193 184 178 174 180 171 134 29 52 103 89 95 92 93 67 37 23 3 13 13 21 12 10 12 14 26 34 33 7 355 328
328 328 330 327 314 276 264 227 207 229 228 226 212 200 198 188 187 192 191 205 318 323 328 336 141 126 81 45 23 7 2 1 7 8 5 3 2 4 9 24 22 323 310
330 332 337 345 348 136 218 181 210 227 230 247 239 254 239 233 252 249 202 300 304 300 301 311 317 349 357 336 337 347 347 341 341 336 338 338 341 344 345 345 349 347 333
329 332 342 2 24 268 229 205 214 221 240 244 243 266 284 292 312 321 324 328 308 296 289 294 297 314 324 327 323 326 329 330 329 326 323 326 332 335 324 314 317 326 331
330 330 336 339 317 315 272 274 268 256 228 265 285 286 288 294 305 310 320 331 327 17 307 298 293 296 302 309 314 318 322 321 320 322 319 316 316 317 319 314 299 302 311
335 328 323 318 311 314 314 305 306 289 292 298 301 299 303 307 311 329 338 339 338 348 330 296 291 298 307 311 313 313 317 318 317 316 316 314 315 315 312 319 313 303 300
351 342 334 323 313 308 312 316 306 308 309 308 311 309 314 313 322 329 333 333 337 329 324 310 295 303 310 313 312 314 315 321 324 322 319 315 315 316 318 315 312 310 307
1 2 357 345 337 329 319 318 315 313 314 314 312 311 319 320 324 320 324 341 337 327 324 323 321 330 333 329 328 329 335 333 327 324 325 320 317 317 313 313 312 310 309
359 0 1 2 355 352 347 345 341 336 337 336 325 327 352 325 341 347 337 322 344 348 355 353 347 351 350 343 349 350 348 348 346 341 336 334 332 327 320 318 317 315 314
1 360 357 354 356 353 349 351 357 15 16 12 23 16 9 352 344 339 340 347 360 14 38 28 16 13 6 10 12 8 5 357 353 347 342 338 334 331 327 325 323 319 317
346 350 354 356 352 356 359 359 346 4 359 356 8 20 35 4 358 32 9 7 20 23 33 21 5 13 4 10 18 10 4 356 350 347 345 340 335 332 329 326 323 322 320
339 344 349 352 356 356 7 16 15 4 1 9 29 13 11 14 42 52 44 32 28 21 15 10 7 12 10 9 4 4 356 347 341 337 333 329 328 327 327 326 325 325 324
347 344 338 338 341 343 355 358 9 12 31 45 25 38 39 40 36 34 34 24 25 30 25 28 25 17 5 355 349 347 342 339 336 336 335 334 334 338 338 337 337 336 333
347 351 352 352 353 1 19 12 20 51 50 53 46 32 26 25 22 23 25 22 29 29 19 11 9 8 4 357 357 356 353 351 349 343 340 338 335 334 334 339 340 336 335
350 354 2 6 4 22 29 34 47 45 44 38 18 16 36 46 29 27 33 28 23 19 16 14 14 12 11 5 360 355 352 349 345 342 340 340 339 338 340 337 335 333 332
358 7 11 15 24 35 39 37 34 31 32 22 25 26 29 25 18 15 15 22 24 25 23 19 16 12 6 359 355 352 349 346 345 344 345 344 341 338 337 335 335 334 332